Lamoni, IA

3:29 AM CST on February 11, 2016 (GMT -0600)
Lamoni Municipal

Weather History for KLWD - October, 2011

Change the Weather History Date:

Saturday, October 15, 2011

  Actual Average Record
Temperature  
Mean Temperature 54 °F 53 °F  
Max Temperature 69 °F 64 °F 85 °F (1963)
Min Temperature 39 °F 43 °F 32 °F (1972)
Degree Days  
Heating Degree Days 11 12  
Month to date heating degree days 54 145  
Since 1 July heating degree days 217 245  
Cooling Degree Days 0 0  
Month to date cooling degree days 23 11  
Year to date cooling degree days 1144 944  
Growing Degree Days 4 (Base 50)    
Moisture  
Dew Point 33 °F    
Average Humidity 52    
Maximum Humidity 79    
Minimum Humidity 24    
Precipitation  
Precipitation 0.00 in 0.11 in 0.72 in (1984)
Month to date precipitation 0.01 1.22  
Year to date precipitation 29.01  
Sea Level Pressure  
Sea Level Pressure 29.98 in    
Wind  
Wind Speed 10 mph (WSW)    
Max Wind Speed 17 mph    
Max Gust Speed 22 mph    
Visibility 10 miles    
Events      
T = Trace of Precipitation, MM = Missing Value Source: NWS Daily Summary

Daily Weather History Graph

Daily Weather History Graph

Search for Another Location

Airport or City:

Trip Planner

Search our weather history database for the weather conditions in past years. The results will help you decide how hot, cold, wet, or windy it might be!

Date:

Astronomy

Oct. 15, 2011 Rise Set
Actual Time 7:26 AM CDT 6:35 PM CDT
Civil Twilight 6:58 AM CDT 7:03 PM CDT
Nautical Twilight 6:27 AM CDT 7:34 PM CDT
Astronomical Twilight 5:55 AM CDT 8:06 PM CDT
Moon 8:31 PM CDT (10/15) 10:52 AM CDT (10/15)
Length of Visible Light 12h 04m
Length of Day
11h 09m
Waning Gibbous, 89% of the Moon is Illuminated
Oct 15
Waning Gibbous
Oct 19
Last Quarter
Oct 26
New
Nov 2
First Quarter
Nov 10
Full

Hourly Weather History & Observations

Time (CDT) Temp. Windchill Dew Point Humidity Pressure Visibility Wind Dir Wind Speed Gust Speed Precip Events Conditions
12:53 AM 42.1 °F 37.1 °F 30.9 °F 65% 30.01 in 10.0 mi WNW 8.1 mph - N/A   Clear
1:53 AM 41.0 °F 36.4 °F 32.0 °F 70% 30.02 in 10.0 mi West 6.9 mph - N/A   Clear
2:53 AM 41.0 °F 36.4 °F 32.0 °F 70% 30.03 in 10.0 mi West 6.9 mph - N/A   Clear
3:53 AM 39.9 °F 34.5 °F 32.0 °F 73% 30.04 in 10.0 mi West 8.1 mph - N/A   Clear
4:53 AM 39.9 °F 34.5 °F 32.0 °F 73% 30.04 in 10.0 mi West 8.1 mph - N/A   Clear
5:53 AM 39.9 °F 34.5 °F 33.1 °F 77% 30.04 in 10.0 mi West 8.1 mph - N/A   Clear
6:53 AM 43.0 °F 38.8 °F 34.0 °F 71% 30.06 in 10.0 mi West 6.9 mph - N/A   Overcast
9:53 AM 53.1 °F - 36.0 °F 52% 30.09 in 10.0 mi West 12.7 mph - N/A   Clear
10:53 AM 57.9 °F - 34.0 °F 41% 30.07 in 10.0 mi West 12.7 mph - N/A   Clear
11:53 AM 63.0 °F - 32.0 °F 31% 30.06 in 10.0 mi West 9.2 mph - N/A   Clear
12:53 PM 64.0 °F - 30.0 °F 28% 30.04 in 10.0 mi West 12.7 mph 19.6 mph N/A   Clear
1:53 PM 66.0 °F - 30.0 °F 26% 30.01 in 10.0 mi WSW 12.7 mph 17.3 mph N/A   Clear
2:53 PM 68.0 °F - 30.0 °F 24% 29.96 in 10.0 mi SW 15.0 mph - N/A   Clear
3:53 PM 68.0 °F - 30.9 °F 25% 29.92 in 10.0 mi SSW 12.7 mph - N/A   Clear
5:53 PM 66.9 °F - 33.1 °F 28% 29.88 in 10.0 mi SSW 10.4 mph 18.4 mph N/A   Clear
6:53 PM 60.1 °F - 34.0 °F 38% 29.88 in 10.0 mi SSW 8.1 mph - N/A   Clear
7:53 PM 61.0 °F - 34.0 °F 36% 29.88 in 10.0 mi South 5.8 mph - N/A   Clear
9:53 PM 57.9 °F - 34.0 °F 41% 29.85 in 10.0 mi South 8.1 mph - N/A   Clear
10:53 PM 55.9 °F - 35.1 °F 45% 29.83 in 10.0 mi South 10.4 mph - N/A   Clear
11:53 PM 54.0 °F - 36.0 °F 51% 29.79 in 10.0 mi South 11.5 mph - N/A   Clear